,,PA_Meas_PMT16A,,PR_Meas_QMR101_102,,RH_Meas_QMH101,,SR_Meas_QMS101,,TA_Meas_QMH101,,GenWind,,GenWind,
time,status,PA,status,PR,status,RH,status,SR,status,TA,status,DirAvg,status,SpdAvg,
2014-08-31, 00:00:04,VALID,917.753,VALID,0,VALID,97.2672,VALID,0,VALID,19.8213,VALID,130,VALID,0,
2014-08-31, 00:01:04,VALID,917.747,VALID,0,VALID,97.2672,VALID,0,VALID,19.8213,VALID,130,VALID,0,
2014-08-31, 00:02:04,VALID,917.747,VALID,0,VALID,97.2443,VALID,0,VALID,19.8213,VALID,141,VALID,0,
2014-08-31, 00:03:04,VALID,917.78,VALID,0,VALID,97.2595,VALID,0,VALID,19.8603,VALID,170,VALID,0,
2014-08-31, 00:04:04,VALID,917.784,VALID,0,VALID,97.2519,VALID,0,VALID,19.8783,VALID,172,VALID,0,
2014-08-31, 00:05:04,VALID,917.806,VALID,0,VALID,97.2519,VALID,0,VALID,19.8798,VALID,172,VALID,0,
2014-08-31, 00:06:04,VALID,917.804,VALID,0,VALID,97.2443,VALID,0,VALID,19.8798,VALID,172,VALID,0,
2014-08-31, 00:07:04,VALID,917.811,VALID,0,VALID,97.2443,VALID,0,VALID,19.8603,VALID,171,VALID,0,
2014-08-31, 00:08:04,VALID,917.818,VALID,0,VALID,97.2443,VALID,0,VALID,19.8783,VALID,171,VALID,0,
2014-08-31, 00:09:04,VALID,917.826,VALID,0,VALID,97.2595,VALID,0,VALID,19.8783,VALID,164,VALID,0,
2014-08-31, 00:10:04,VALID,917.794,VALID,0,VALID,97.2595,VALID,0,VALID,19.8198,VALID,162,VALID,0,
2014-08-31, 00:11:04,VALID,917.852,VALID,0,VALID,97.2519,VALID,0,VALID,19.8783,VALID,159,VALID,0,
2014-08-31, 00:12:04,VALID,917.807,VALID,0,VALID,97.2595,VALID,0,VALID,19.8393,VALID,144,VALID,0,
2014-08-31, 00:13:04,VALID,917.815,VALID,0,VALID,97.2519,VALID,0,VALID,19.8198,VALID,140,VALID,0,
2014-08-31, 00:14:04,VALID,917.82,VALID,0,VALID,97.2748,VALID,0,VALID,19.8798,VALID,144,VALID,0,
2014-08-31, 00:15:04,VALID,917.81,VALID,0,VALID,97.2367,VALID,0,VALID,19.8198,VALID,144,VALID,0.24375,
2014-08-31, 00:16:04,VALID,917.8,VALID,0,VALID,97.2367,VALID,0,VALID,19.8198,VALID,146,VALID,0,
2014-08-31, 00:17:04,VALID,917.795,VALID,0,VALID,97.229,VALID,0,VALID,19.8003,VALID,147,VALID,0.1375,
2014-08-31, 00:18:04,VALID,917.782,VALID,0,VALID,97.2443,VALID,0,VALID,19.8393,VALID,139,VALID,0.305859,
2014-08-31, 00:19:04,VALID,917.779,VALID,0,VALID,97.2062,VALID,0,VALID,19.8408,VALID,146,VALID,0.682422,
2014-08-31, 00:20:04,VALID,917.789,VALID,0,VALID,97.2138,VALID,0,VALID,19.8588,VALID,140,VALID,0.507422,
2014-08-31, 00:21:04,VALID,917.793,VALID,0,VALID,97.2138,VALID,0,VALID,19.8783,VALID,148,VALID,0,
2014-08-31, 00:22:04,VALID,917.8,VALID,0,VALID,97.2138,VALID,0,VALID,19.8783,VALID,141,VALID,0.00273437,
2014-08-31, 00:23:04,VALID,917.77,VALID,0,VALID,97.1909,VALID,0,VALID,19.8393,VALID,137,VALID,0,
2014-08-31, 00:24:04,VALID,917.79,VALID,0,VALID,97.1986,VALID,0,VALID,19.8393,VALID,137,VALID,0,
2014-08-31, 00:25:04,VALID,917.768,VALID,0,VALID,97.1909,VALID,0,VALID,19.8783,VALID,137,VALID,0,
2014-08-31, 00:26:04,VALID,917.741,VALID,0,VALID,97.1986,VALID,0,VALID,19.8783,VALID,137,VALID,0,
2014-08-31, 00:27:04,VALID,917.765,VALID,0,VALID,97.1833,VALID,0,VALID,19.8393,VALID,137,VALID,0,
2014-08-31, 00:28:04,VALID,917.747,VALID,0,VALID,97.1681,VALID,0,VALID,19.8783,VALID,137,VALID,0,
2014-08-31, 00:29:04,VALID,917.756,VALID,0,VALID,97.1757,VALID,0,VALID,19.8393,VALID,137,VALID,0,
2014-08-31, 00:30:04,VALID,917.75,VALID,0,VALID,97.1833,VALID,0,VALID,19.8393,VALID,137,VALID,0,
2014-08-31, 00:31:04,VALID,917.754,VALID,0,VALID,97.1757,VALID,0,VALID,19.8993,VALID,137,VALID,0,
2014-08-31, 00:32:04,VALID,917.719,VALID,0,VALID,97.1833,VALID,0,VALID,19.8603,VALID,123,VALID,0,
2014-08-31, 00:33:04,VALID,917.697,VALID,0,VALID,97.1909,VALID,0,VALID,19.8198,VALID,120,VALID,0.559766,
2014-08-31, 00:34:04,VALID,917.675,VALID,0,VALID,97.1757,VALID,0,VALID,19.8018,VALID,112,VALID,0.844531,
2014-08-31, 00:35:04,VALID,917.665,VALID,0,VALID,97.1833,VALID,0,VALID,19.7808,VALID,121,VALID,0.562891,
2014-08-31, 00:36:04,VALID,917.625,VALID,0,VALID,97.2062,VALID,0,VALID,19.7613,VALID,133,VALID,0.845703,
2014-08-31, 00:37:04,VALID,917.598,VALID,0,VALID,97.1909,VALID,0,VALID,19.7823,VALID,129,VALID,0.666797,
2014-08-31, 00:38:04,VALID,917.581,VALID,0,VALID,97.1833,VALID,0,VALID,19.7808,VALID,122,VALID,1.06289,
2014-08-31, 00:39:04,VALID,917.553,VALID,0,VALID,97.2138,VALID,0,VALID,19.7808,VALID,126,VALID,0.0878906,
2014-08-31, 00:40:04,VALID,917.543,VALID,0,VALID,97.1833,VALID,0,VALID,19.7823,VALID,131,VALID,0.573047,
2014-08-31, 00:41:04,VALID,917.506,VALID,0,VALID,97.1833,VALID,0,VALID,19.7418,VALID,134,VALID,0.117969,
2014-08-31, 00:42:04,VALID,917.496,VALID,0,VALID,97.1909,VALID,0,VALID,19.7613,VALID,133,VALID,0.298828,
2014-08-31, 00:43:04,VALID,917.521,VALID,0,VALID,97.1833,VALID,0,VALID,19.7613,VALID,147,VALID,0.119922,
2014-08-31, 00:44:04,VALID,917.509,VALID,0,VALID,97.2214,VALID,0.107441,VALID,19.7808,VALID,151,VALID,0.470313,
2014-08-31, 00:45:04,VALID,917.48,VALID,0,VALID,97.1986,VALID,0,VALID,19.7418,VALID,147,VALID,0.18125,
2014-08-31, 00:46:04,VALID,917.458,VALID,0,VALID,97.1986,VALID,0,VALID,19.7613,VALID,148,VALID,0.00078125,
2014-08-31, 00:47:04,VALID,917.453,VALID,0,VALID,97.2138,VALID,0,VALID,19.7208,VALID,150,VALID,0.241016,
2014-08-31, 00:48:04,VALID,917.492,VALID,0,VALID,97.2367,VALID,0,VALID,19.7418,VALID,169,VALID,0.0964844,
2014-08-31, 00:49:04,VALID,917.484,VALID,0,VALID,97.2062,VALID,0,VALID,19.7613,VALID,172,VALID,0,
2014-08-31, 00:50:04,VALID,917.468,VALID,0,VALID,97.2062,VALID,0,VALID,19.7808,VALID,181,VALID,0,
2014-08-31, 00:51:04,VALID,917.454,VALID,0,VALID,97.2214,VALID,0,VALID,19.7808,VALID,177,VALID,0,
2014-08-31, 00:52:04,VALID,917.451,VALID,0,VALID,97.2062,VALID,0,VALID,19.8003,VALID,177,VALID,0,
2014-08-31, 00:53:04,VALID,917.458,VALID,0,VALID,97.1909,VALID,0,VALID,19.8198,VALID,177,VALID,0,
2014-08-31, 00:54:04,VALID,917.444,VALID,0,VALID,97.1986,VALID,0,VALID,19.8003,VALID,177,VALID,0,
2014-08-31, 00:55:04,VALID,917.444,VALID,0,VALID,97.2138,VALID,0,VALID,19.8003,VALID,177,VALID,0,
2014-08-31, 00:56:04,VALID,917.413,VALID,0,VALID,97.1909,VALID,0,VALID,19.7808,VALID,128,VALID,0,
2014-08-31, 00:57:04,VALID,917.4,VALID,0,VALID,97.2214,VALID,0,VALID,19.7598,VALID,128,VALID,0,
2014-08-31, 00:58:04,VALID,917.396,VALID,0,VALID,97.2062,VALID,0,VALID,19.7613,VALID,128,VALID,0,
2014-08-31, 00:59:04,VALID,917.375,VALID,0,VALID,97.1909,VALID,0,VALID,19.7418,VALID,128,VALID,0,
2014-08-31, 01:00:04,VALID,917.358,VALID,0,VALID,97.1986,VALID,0,VALID,19.7418,VALID,128,VALID,0,
2014-08-31, 01:01:04,VALID,917.342,VALID,0,VALID,97.229,VALID,0,VALID,19.7628,VALID,128,VALID,0,
2014-08-31, 01:02:04,VALID,917.313,VALID,0,VALID,97.2138,VALID,0,VALID,19.7223,VALID,128,VALID,0,
2014-08-31, 01:03:04,VALID,917.313,VALID,0,VALID,97.2138,VALID,0,VALID,19.7418,VALID,128,VALID,0,
2014-08-31, 01:04:04,VALID,917.254,VALID,0,VALID,97.2062,VALID,0,VALID,19.7403,VALID,128,VALID,0,
2014-08-31, 01:05:04,VALID,917.234,VALID,0,VALID,97.229,VALID,0.107441,VALID,19.7598,VALID,128,VALID,0,
2014-08-31, 01:06:04,VALID,917.225,VALID,0,VALID,97.1986,VALID,0,VALID,19.7808,VALID,128,VALID,0,
2014-08-31, 01:07:04,VALID,917.157,VALID,0,VALID,97.229,VALID,0,VALID,19.7613,VALID,128,VALID,0,
2014-08-31, 01:08:05,VALID,917.135,VALID,0,VALID,97.229,VALID,0,VALID,19.7808,VALID,128,VALID,0,
2014-08-31, 01:09:05,VALID,917.1,VALID,0,VALID,97.229,VALID,0.107441,VALID,19.7613,VALID,128,VALID,0,
2014-08-31, 01:10:05,VALID,917.113,VALID,0,VALID,97.2367,VALID,0,VALID,19.7613,VALID,128,VALID,0,
2014-08-31, 01:11:05,VALID,917.098,VALID,0,VALID,97.2367,VALID,0.107441,VALID,19.7418,VALID,128,VALID,0,
2014-08-31, 01:12:05,VALID,917.097,VALID,0,VALID,97.2138,VALID,0.107441,VALID,19.7418,VALID,128,VALID,0,
2014-08-31, 01:13:05,VALID,917.078,VALID,0,VALID,97.229,VALID,0.107441,VALID,19.7028,VALID,128,VALID,0,
2014-08-31, 01:14:05,VALID,917.084,VALID,0,VALID,97.2443,VALID,0,VALID,19.7028,VALID,128,VALID,0,
2014-08-31, 01:15:05,VALID,917.079,VALID,0,VALID,97.2367,VALID,0.107441,VALID,19.6638,VALID,128,VALID,0,
2014-08-31, 01:16:05,VALID,917.063,VALID,0,VALID,97.2443,VALID,0.107441,VALID,19.6833,VALID,128,VALID,0,
2014-08-31, 01:17:05,VALID,917.038,VALID,0,VALID,97.2519,VALID,0,VALID,19.6638,VALID,128,VALID,0,
2014-08-31, 01:18:05,VALID,917.012,VALID,0,VALID,97.2519,VALID,0,VALID,19.6443,VALID,128,VALID,0,
2014-08-31, 01:19:05,VALID,917.035,VALID,0,VALID,97.2443,VALID,0.107441,VALID,19.6638,VALID,129,VALID,0,
2014-08-31, 01:20:05,VALID,917.008,VALID,0,VALID,97.2443,VALID,0,VALID,19.6833,VALID,128,VALID,0,
2014-08-31, 01:21:05,VALID,917.025,VALID,0,VALID,97.229,VALID,0,VALID,19.7028,VALID,129,VALID,0,
2014-08-31, 01:22:05,VALID,917.032,VALID,0,VALID,97.2367,VALID,0.107441,VALID,19.7208,VALID,128,VALID,0,
2014-08-31, 01:23:05,VALID,917.06,VALID,0,VALID,97.2367,VALID,0.107441,VALID,19.7613,VALID,128,VALID,0,
2014-08-31, 01:24:05,VALID,917.035,VALID,0,VALID,97.229,VALID,0,VALID,19.7613,VALID,128,VALID,0,
2014-08-31, 01:25:05,VALID,917.019,VALID,0,VALID,97.2519,VALID,0,VALID,19.7418,VALID,128,VALID,0,
2014-08-31, 01:26:05,VALID,917.027,VALID,0,VALID,97.2367,VALID,0.107441,VALID,19.7418,VALID,129,VALID,0,
2014-08-31, 01:27:05,VALID,917.056,VALID,0,VALID,97.2519,VALID,0,VALID,19.7418,VALID,129,VALID,0,
2014-08-31, 01:28:05,VALID,917.017,VALID,0,VALID,97.2595,VALID,0,VALID,19.7628,VALID,129,VALID,0,
2014-08-31, 01:29:05,VALID,917.019,VALID,0,VALID,97.2595,VALID,0,VALID,19.7028,VALID,128,VALID,0,
2014-08-31, 01:30:05,VALID,917.035,VALID,0,VALID,97.2748,VALID,0,VALID,19.6458,VALID,129,VALID,0,
2014-08-31, 01:31:05,VALID,917.069,VALID,0,VALID,97.2519,VALID,0.107441,VALID,19.6053,VALID,128,VALID,0,
2014-08-31, 01:32:05,VALID,917.078,VALID,0,VALID,97.2595,VALID,0,VALID,19.5858,VALID,129,VALID,0,
2014-08-31, 01:33:05,VALID,917.103,VALID,0,VALID,97.2748,VALID,0,VALID,19.5663,VALID,129,VALID,0,
2014-08-31, 01:34:05,VALID,917.077,VALID,0,VALID,97.2748,VALID,0,VALID,19.5468,VALID,129,VALID,0,
2014-08-31, 01:35:05,VALID,917.059,VALID,0,VALID,97.2748,VALID,0,VALID,19.5468,VALID,129,VALID,0,
2014-08-31, 01:36:05,VALID,917.057,VALID,0,VALID,97.2824,VALID,0,VALID,19.5468,VALID,129,VALID,0,
2014-08-31, 01:37:05,VALID,917.034,VALID,0,VALID,97.2824,VALID,0,VALID,19.5468,VALID,129,VALID,0,
2014-08-31, 01:38:05,VALID,917.017,VALID,0,VALID,97.29,VALID,0,VALID,19.5468,VALID,129,VALID,0,
2014-08-31, 01:39:05,VALID,917.016,VALID,0,VALID,97.2748,VALID,0,VALID,19.5273,VALID,128,VALID,0,
2014-08-31, 01:40:05,VALID,917.016,VALID,0,VALID,97.2824,VALID,0.107441,VALID,19.5273,VALID,128,VALID,0,
2014-08-31, 01:41:05,VALID,917.032,VALID,0,VALID,97.2672,VALID,0.107441,VALID,19.5273,VALID,128,VALID,0,
2014-08-31, 01:42:05,VALID,917.033,VALID,0,VALID,97.3053,VALID,0,VALID,19.5663,VALID,129,VALID,0,
2014-08-31, 01:43:05,VALID,917.024,VALID,0,VALID,97.29,VALID,0,VALID,19.5663,VALID,129,VALID,0,
2014-08-31, 01:44:05,VALID,917.018,VALID,0,VALID,97.29,VALID,0.107441,VALID,19.6068,VALID,128,VALID,0,
2014-08-31, 01:45:05,VALID,917.027,VALID,0,VALID,97.2748,VALID,0,VALID,19.5858,VALID,128,VALID,0,
2014-08-31, 01:46:05,VALID,917.025,VALID,0,VALID,97.2748,VALID,0,VALID,19.6068,VALID,178,VALID,0,
2014-08-31, 01:47:05,VALID,917.001,VALID,0,VALID,97.2824,VALID,0,VALID,19.6053,VALID,206,VALID,0,
2014-08-31, 01:48:05,VALID,916.992,VALID,0,VALID,97.3053,VALID,0,VALID,19.5858,VALID,206,VALID,0,
2014-08-31, 01:49:05,VALID,916.991,VALID,0,VALID,97.2977,VALID,0,VALID,19.5858,VALID,206,VALID,0,
2014-08-31, 01:50:05,VALID,916.977,VALID,0,VALID,97.29,VALID,0,VALID,19.6053,VALID,206,VALID,0,
2014-08-31, 01:51:05,VALID,916.962,VALID,0,VALID,97.2977,VALID,0.107441,VALID,19.6248,VALID,206,VALID,0,
2014-08-31, 01:52:05,VALID,916.975,VALID,0,VALID,97.2824,VALID,0,VALID,19.6443,VALID,206,VALID,0,
2014-08-31, 01:53:05,VALID,916.946,VALID,0,VALID,97.29,VALID,0,VALID,19.7028,VALID,206,VALID,0,
2014-08-31, 01:54:05,VALID,916.957,VALID,0,VALID,97.2748,VALID,0,VALID,19.7223,VALID,206,VALID,0,
2014-08-31, 01:55:05,VALID,916.923,VALID,0,VALID,97.29,VALID,0,VALID,19.7418,VALID,206,VALID,0,
2014-08-31, 01:56:05,VALID,916.886,VALID,0,VALID,97.29,VALID,0,VALID,19.7418,VALID,206,VALID,0,
2014-08-31, 01:57:05,VALID,916.853,VALID,0,VALID,97.29,VALID,0.107441,VALID,19.7418,VALID,206,VALID,0,
2014-08-31, 01:58:05,VALID,916.827,VALID,0,VALID,97.2977,VALID,0,VALID,19.7223,VALID,206,VALID,0,
2014-08-31, 01:59:05,VALID,916.794,VALID,0,VALID,97.29,VALID,0,VALID,19.7418,VALID,194,VALID,0,
2014-08-31, 02:00:05,VALID,916.75,VALID,0,VALID,97.2977,VALID,0.107441,VALID,19.7223,VALID,187,VALID,0,
2014-08-31, 02:01:05,VALID,916.73,VALID,0,VALID,97.2977,VALID,0,VALID,19.7418,VALID,189,VALID,0,
2014-08-31, 02:02:05,VALID,916.752,VALID,0,VALID,97.3205,VALID,0,VALID,19.7238,VALID,185,VALID,0,
2014-08-31, 02:03:05,VALID,916.753,VALID,0,VALID,97.3053,VALID,0,VALID,19.6833,VALID,185,VALID,0,
2014-08-31, 02:04:05,VALID,916.747,VALID,0,VALID,97.3205,VALID,0,VALID,19.7043,VALID,185,VALID,0,
2014-08-31, 02:05:05,VALID,916.762,VALID,0,VALID,97.2977,VALID,0,VALID,19.6833,VALID,185,VALID,0,
2014-08-31, 02:06:05,VALID,916.771,VALID,0,VALID,97.3053,VALID,0,VALID,19.6833,VALID,160,VALID,0,
2014-08-31, 02:07:05,VALID,916.798,VALID,0,VALID,97.3053,VALID,0,VALID,19.6638,VALID,160,VALID,0,
2014-08-31, 02:08:05,VALID,916.809,VALID,0,VALID,97.3129,VALID,0,VALID,19.6848,VALID,160,VALID,0,
2014-08-31, 02:09:05,VALID,916.79,VALID,0,VALID,97.3205,VALID,0,VALID,0,0,0,0,0,
2014-08-31, 07:42:04,INVALID - VALUE NOT AVAILABLE,0,INVALID - VALUE NOT AVAILABLE,0,INVALID - VALUE NOT AVAILABLE,0,INVALID - VALUE NOT AVAILABLE,0,INVALID - VALUE NOT AVAILABLE,0,INVALID,360,INVALID,0,
2014-08-31, 07:56:04,VALID,917.776,VALID,0,VALID,97.1681,VALID,46.522,VALID,19.8783,VALID,360,VALID,0,
2014-08-31, 07:57:04,VALID,917.799,VALID,0,VALID,97.1757,VALID,50.4973,VALID,19.9173,VALID,360,VALID,0,
2014-08-31, 07:58:04,VALID,917.811,VALID,0,VALID,97.1757,VALID,54.9024,VALID,19.9368,VALID,355,VALID,0,
2014-08-31, 07:59:04,VALID,917.817,VALID,0,VALID,97.1757,VALID,56.8364,VALID,19.9563,VALID,336,VALID,0,
2014-08-31, 08:00:04,VALID,917.851,VALID,0,VALID,97.1757,VALID,57.3736,VALID,19.9368,VALID,338,VALID,0,
2014-08-31, 08:01:04,VALID,917.832,VALID,0,VALID,97.1909,VALID,58.5554,VALID,19.9368,VALID,5,VALID,0.218359,
2014-08-31, 08:02:04,VALID,917.806,VALID,0,VALID,97.1833,VALID,59.6298,VALID,19.9758,VALID,11,VALID,0,
2014-08-31, 08:03:04,VALID,917.818,VALID,0,VALID,97.1986,VALID,60.2745,VALID,19.9758,VALID,16,VALID,0,
2014-08-31, 08:04:04,VALID,917.826,VALID,0,VALID,97.1909,VALID,59.2001,VALID,19.9758,VALID,8,VALID,0.797656,
2014-08-31, 08:05:04,VALID,917.816,VALID,0,VALID,97.1986,VALID,59.6298,VALID,19.9563,VALID,347,VALID,0.0621094,
2014-08-31, 08:06:04,VALID,917.837,VALID,0,VALID,97.2138,VALID,60.0596,VALID,19.9563,VALID,14,VALID,0,
2014-08-31, 08:07:04,VALID,917.822,VALID,0,VALID,97.2062,VALID,61.0266,VALID,19.9758,VALID,3,VALID,0,
2014-08-31, 08:08:04,VALID,917.832,VALID,0,VALID,97.2062,VALID,60.5968,VALID,19.9353,VALID,17,VALID,0,
2014-08-31, 08:09:04,VALID,917.882,VALID,0,VALID,97.2214,VALID,61.6712,VALID,19.9368,VALID,9,VALID,0.233203,
2014-08-31, 08:10:04,VALID,917.888,VALID,0,VALID,97.2214,VALID,62.7456,VALID,19.8783,VALID,13,VALID,0,
2014-08-31, 08:11:04,VALID,917.923,VALID,0,VALID,97.2214,VALID,64.0349,VALID,19.8978,VALID,22,VALID,0,
2014-08-31, 08:12:04,VALID,917.961,VALID,0,VALID,97.2138,VALID,65.0019,VALID,19.9173,VALID,350,VALID,0,
2014-08-31, 08:13:04,VALID,918.012,VALID,0.2,VALID,97.2062,VALID,64.1424,VALID,19.9368,VALID,14,VALID,0,
2014-08-31, 08:14:04,VALID,918.013,VALID,0,VALID,97.2062,VALID,63.82,VALID,19.9953,VALID,12,VALID,0,
2014-08-31, 08:15:04,VALID,918.06,VALID,0,VALID,97.2367,VALID,67.3656,VALID,19.9563,VALID,22,VALID,0,
2014-08-31, 08:16:04,VALID,918.095,VALID,0,VALID,97.2138,VALID,68.3326,VALID,19.9758,VALID,350,VALID,0.485547,
2014-08-31, 08:17:04,VALID,918.129,VALID,0,VALID,97.229,VALID,67.0433,VALID,19.9368,VALID,356,VALID,0.836328,
2014-08-31, 08:18:04,VALID,918.147,VALID,0,VALID,97.229,VALID,64.0349,VALID,19.9368,VALID,326,VALID,0.469531,
2014-08-31, 08:19:04,VALID,918.163,VALID,0,VALID,97.2367,VALID,60.9191,VALID,19.9368,VALID,301,VALID,0.192188,
2014-08-31, 08:20:04,VALID,918.164,VALID,0,VALID,97.229,VALID,55.6545,VALID,19.9368,VALID,360,VALID,0,
2014-08-31, 08:21:04,VALID,918.181,VALID,0,VALID,97.2595,VALID,59.8447,VALID,19.9368,VALID,7,VALID,0.76875,
2014-08-31, 08:22:04,VALID,918.196,VALID,0,VALID,97.229,VALID,70.2665,VALID,19.9953,VALID,9,VALID,1.01484,
2014-08-31, 08:23:04,VALID,918.187,VALID,0,VALID,97.2367,VALID,87.5645,VALID,20.0148,VALID,10,VALID,1.93398,
2014-08-31, 08:24:04,VALID,918.157,VALID,0,VALID,97.229,VALID,98.2012,VALID,19.9953,VALID,317,VALID,0.983203,
2014-08-31, 08:25:04,VALID,918.173,VALID,0,VALID,97.2595,VALID,105.937,VALID,19.9173,VALID,360,VALID,0.367578,
2014-08-31, 08:26:04,VALID,918.173,VALID,0,VALID,97.2443,VALID,107.871,VALID,19.9368,VALID,353,VALID,0.607422,
2014-08-31, 08:27:04,VALID,918.219,VALID,0,VALID,97.2595,VALID,107.011,VALID,19.9158,VALID,26,VALID,1.54922,
2014-08-31, 08:28:04,VALID,918.2,VALID,0,VALID,97.2519,VALID,104.11,VALID,19.9368,VALID,5,VALID,0.638281,
2014-08-31, 08:29:04,VALID,918.268,VALID,0,VALID,97.229,VALID,109.59,VALID,19.9758,VALID,7,VALID,0.246094,
2014-08-31, 08:30:04,VALID,918.316,VALID,0,VALID,97.2595,VALID,99.7054,VALID,19.9758,VALID,17,VALID,0.426562,
2014-08-31, 08:31:04,VALID,918.333,VALID,0,VALID,97.2443,VALID,97.5566,VALID,20.0733,VALID,350,VALID,1.1707,
2014-08-31, 08:32:04,VALID,918.372,VALID,0,VALID,97.2595,VALID,92.3994,VALID,20.0343,VALID,356,VALID,0,
2014-08-31, 08:33:04,VALID,918.427,VALID,0,VALID,97.2595,VALID,87.5645,VALID,20.0343,VALID,353,VALID,0,
2014-08-31, 08:34:04,VALID,918.444,VALID,0,VALID,97.2519,VALID,84.2339,VALID,20.0733,VALID,353,VALID,0,
2014-08-31, 08:35:04,VALID,918.494,VALID,0,VALID,97.2367,VALID,81.8702,VALID,20.1318,VALID,35,VALID,0.196484,
2014-08-31, 08:36:04,VALID,918.523,VALID,0,VALID,97.229,VALID,76.1758,VALID,20.1903,VALID,22,VALID,0,
2014-08-31, 08:37:04,VALID,918.529,VALID,0,VALID,97.2595,VALID,67.9028,VALID,20.1708,INVALID,360,VALID,0,
2014-08-31, 08:38:04,VALID,918.559,VALID,0,VALID,97.2443,VALID,66.9358,VALID,20.1708,VALID,2,VALID,0,
2014-08-31, 08:39:04,VALID,918.546,VALID,0,VALID,97.2367,VALID,64.1424,VALID,20.2098,VALID,2,VALID,0,
2014-08-31, 08:40:04,VALID,918.582,VALID,0,VALID,97.2595,VALID,71.6632,VALID,20.1498,VALID,37,VALID,0,
2014-08-31, 08:41:04,VALID,918.573,VALID,0,VALID,97.2443,VALID,97.0194,VALID,20.2684,VALID,23,VALID,0.0195313,
2014-08-31, 08:42:04,VALID,918.575,VALID,0,VALID,97.2443,VALID,120.227,VALID,20.2489,VALID,22,VALID,0,
2014-08-31, 08:43:04,VALID,918.579,VALID,0,VALID,97.2367,VALID,144.186,VALID,20.2684,VALID,22,VALID,0,
2014-08-31, 08:44:04,VALID,918.538,VALID,0,VALID,97.2519,VALID,158.368,VALID,20.2489,VALID,28,VALID,0,
2014-08-31, 08:45:04,VALID,918.578,VALID,0,VALID,97.229,VALID,173.947,VALID,20.2293,VALID,22,VALID,0,
2014-08-31, 08:46:04,VALID,918.569,VALID,0,VALID,97.2214,VALID,188.667,VALID,20.2489,VALID,9,VALID,0,
2014-08-31, 08:47:04,VALID,918.542,VALID,0,VALID,97.2214,VALID,212.519,VALID,20.2879,VALID,55,VALID,0,
2014-08-31, 08:48:04,VALID,918.516,VALID,0,VALID,97.2138,VALID,242.71,VALID,20.3854,VALID,44,VALID,0,
2014-08-31, 08:49:04,VALID,918.532,VALID,0,VALID,97.1909,VALID,256.14,VALID,20.3838,VALID,44,VALID,0,
2014-08-31, 08:50:04,VALID,918.559,VALID,0,VALID,97.1833,VALID,254.743,VALID,20.4439,VALID,44,VALID,0,
2014-08-31, 08:51:04,VALID,918.566,VALID,0,VALID,97.1528,VALID,251.627,VALID,20.5999,VALID,44,VALID,0,
2014-08-31, 08:52:04,VALID,918.538,VALID,0,VALID,97.1604,VALID,257.536,VALID,20.7349,VALID,44,VALID,0,
2014-08-31, 08:53:04,VALID,918.532,VALID,0,VALID,97.1376,VALID,275.264,VALID,20.8129,VALID,45,VALID,0,
2014-08-31, 08:54:04,VALID,918.532,VALID,0,VALID,97.1071,VALID,273.438,VALID,20.8519,VALID,44,VALID,0,
2014-08-31, 08:55:04,VALID,918.558,VALID,0,VALID,97.1147,VALID,266.132,VALID,20.9511,VALID,45,VALID,0,
2014-08-31, 08:56:04,VALID,918.552,VALID,0,VALID,97.1223,VALID,271.504,VALID,20.9511,VALID,292,VALID,0,
2014-08-31, 08:57:04,VALID,918.56,VALID,0,VALID,97.1147,VALID,278.058,VALID,20.891,VALID,287,VALID,0,
2014-08-31, 08:58:04,VALID,918.56,VALID,0,VALID,97.0994,VALID,283.645,VALID,20.834,VALID,278,VALID,0,
2014-08-31, 08:59:04,VALID,918.599,VALID,0,VALID,97.0918,VALID,288.372,VALID,20.834,VALID,266,VALID,0,
2014-08-31, 09:00:04,VALID,918.582,VALID,0,VALID,97.0766,VALID,287.19,VALID,20.891,VALID,269,VALID,0,
2014-08-31, 09:01:04,VALID,918.573,VALID,0,VALID,97.0537,VALID,302.125,VALID,20.969,VALID,270,VALID,0,
2014-08-31, 09:02:04,VALID,918.6,VALID,0,VALID,97.0308,VALID,309.86,VALID,21.086,VALID,270,VALID,0,
2014-08-31, 09:03:04,VALID,918.604,VALID,0,VALID,97.008,VALID,278.058,VALID,21.0665,VALID,273,VALID,0,
2014-08-31, 09:04:04,VALID,918.591,VALID,0,VALID,96.9851,VALID,245.396,VALID,21.1055,VALID,274,VALID,0,
2014-08-31, 09:05:04,VALID,918.617,VALID,0,VALID,96.9622,VALID,223.692,VALID,21.1445,VALID,358,VALID,0,
2014-08-31, 09:06:04,VALID,918.644,VALID,0,VALID,96.9317,VALID,215.527,VALID,21.086,VALID,341,VALID,0,
2014-08-31, 09:07:04,VALID,918.657,VALID,0,VALID,96.886,VALID,217.568,VALID,21.0064,VALID,311,VALID,0,
2014-08-31, 09:08:04,VALID,918.699,VALID,0,VALID,96.8403,VALID,213.163,VALID,20.9089,VALID,311,VALID,0,
2014-08-31, 09:09:04,VALID,918.696,VALID,0,VALID,96.764,VALID,206.394,VALID,20.8894,VALID,311,VALID,0,
2014-08-31, 09:10:04,VALID,918.732,VALID,0,VALID,96.7183,VALID,211.229,VALID,20.9089,VALID,311,VALID,0,
2014-08-31, 09:11:04,VALID,918.716,VALID,0,VALID,96.7183,VALID,230.032,VALID,20.93,VALID,245,VALID,0,
2014-08-31, 09:12:04,VALID,918.725,VALID,0,VALID,96.6802,VALID,251.09,VALID,20.9495,VALID,245,VALID,0,
2014-08-31, 09:13:04,VALID,918.724,VALID,0,VALID,96.6497,VALID,248.082,VALID,20.891,VALID,258,VALID,0.102344,
2014-08-31, 09:14:04,VALID,918.761,VALID,0,VALID,96.6039,VALID,229.494,VALID,20.8519,VALID,275,VALID,0,
2014-08-31, 09:15:04,VALID,918.775,VALID,0,VALID,96.6268,VALID,220.577,VALID,20.9105,VALID,249,VALID,0,
2014-08-31, 09:16:04,VALID,918.801,VALID,0,VALID,96.5887,VALID,214.99,VALID,20.8519,VALID,250,VALID,0.259766,
2014-08-31, 09:17:04,VALID,918.793,VALID,0,VALID,96.5734,VALID,217.676,VALID,20.8324,VALID,246,VALID,0.755469,
2014-08-31, 09:18:04,VALID,918.803,VALID,0,VALID,96.5429,VALID,236.585,VALID,20.7739,VALID,247,VALID,0.0261719,
2014-08-31, 09:19:04,VALID,918.795,VALID,0,VALID,96.5048,VALID,267.958,VALID,20.7154,VALID,239,VALID,0,
2014-08-31, 09:20:04,VALID,918.745,VALID,0,VALID,96.4819,VALID,321.034,VALID,20.6959,VALID,289,VALID,0,
2014-08-31, 09:21:04,VALID,918.714,VALID,0,VALID,96.4972,VALID,365.945,VALID,20.6959,VALID,274,VALID,0,
2014-08-31, 09:22:04,VALID,918.747,VALID,0,VALID,96.5277,VALID,354.878,VALID,20.7349,VALID,258,VALID,0.310937,
2014-08-31, 09:23:04,VALID,918.725,VALID,0,VALID,96.5124,VALID,332.423,VALID,20.7739,VALID,248,VALID,0,
2014-08-31, 09:24:04,VALID,918.678,VALID,0,VALID,96.4819,VALID,302.017,VALID,20.7544,VALID,249,VALID,0,
2014-08-31, 09:25:04,VALID,918.685,VALID,0,VALID,96.4896,VALID,262.479,VALID,20.8129,VALID,257,VALID,0,
2014-08-31, 09:26:04,VALID,918.675,VALID,0,VALID,96.5048,VALID,251.305,VALID,20.9105,VALID,257,VALID,0,
2014-08-31, 09:27:04,VALID,918.659,VALID,0,VALID,96.5124,VALID,217.783,VALID,20.9495,VALID,257,VALID,0,
2014-08-31, 09:28:04,VALID,918.632,VALID,0,VALID,96.4819,VALID,195.113,VALID,20.9674,VALID,260,VALID,0,
2014-08-31, 09:29:04,VALID,918.622,VALID,0,VALID,96.4819,VALID,183.939,VALID,21.008,VALID,266,VALID,0,
2014-08-31, 09:30:04,VALID,918.626,VALID,0,VALID,96.4591,VALID,179.642,VALID,21.0649,VALID,277,VALID,0,
2014-08-31, 09:31:04,VALID,918.607,VALID,0,VALID,96.4438,VALID,176.311,VALID,21.1055,VALID,275,VALID,0,
2014-08-31, 09:32:04,VALID,918.614,VALID,0,VALID,96.3981,VALID,173.84,VALID,21.1234,VALID,194,VALID,0,
2014-08-31, 09:33:04,VALID,918.604,VALID,0,VALID,96.4057,VALID,174.914,VALID,21.1836,VALID,194,VALID,0,
2014-08-31, 09:34:04,VALID,918.608,VALID,0,VALID,96.3905,VALID,180.071,VALID,21.2031,VALID,154,VALID,0,